Location: Newark
(48.1281°N, 2.1556°W)
Time: 08:19:57
(UTC+00:00)

Envisat - Pass Details

Date: 28 November 2019
Orbit: 764 x 766 km, 98.1° (Epoch: 13 December)

Event Time Altitude Azimuth Distance (km) Brightness Sun altitude
Rises 18:21:44 0° 177° (S) 3,219 6.3 -19.8°
Reaches altitude 10° 18:24:04 10° 181° (S) 2,297 5.6 -20.2°
Maximum altitude 18:29:02 56° 260° (W) 911 3.7 -21.0°
Drops below altitude 10° 18:34:03 10° 338° (NNW) 2,313 5.6 -21.9°
Sets 18:36:25 0° 343° (NNW) 3,244 6.4 -22.2°
